Location: Austin
(30.3000°N, 97.7500°W)
Time: 23:59:42
(UTC-05:00)

ATLAS 2AS CENTAUR R/B - Pass Details

Date: 06 May 2026
Orbit: 1052 x 1158 km, 63.7° (Epoch: 13 May)

Event Time Altitude Azimuth Distance (km) Brightness Sun altitude
Rises 20:23:53 0° 198° (SSW) 3,944 5.6 -3.2°
Reaches altitude 10° 20:26:37 10° 195° (SSW) 2,973 5.0 -3.7°
Maximum altitude 20:33:35 65° 115° (ESE) 1,190 2.8 -5.1°
Drops below altitude 10° 20:40:23 10° 35° (NE) 2,911 4.9 -6.5°
Sets 20:43:02 0° 33° (NNE) 3,857 5.5 -7.0°
